STARLINK-1551, 46075

Orbit data source: Space-Track

STARLINK-1551, 46075 is a payload satellite owned by SpaceX/Seattle (US) in LEO that was launched on Fri, 07 Aug 2020 UTC via an FALCON 9 launch vehicle from the Air Force Eastern Test Range (AFETR). Payload-class satellites include a variety of spacecraft equipped with specific instruments for various scientific and technological missions. These include communications satellites like Starlink; space stations such as the ISS; scientific satellites like the Hubble; Earth observation satellites from companies like Planet Labs, Umbra, and HawkEye 360; GPS; miniature CubeSats for education and research; and military/defense satellites.

Loading next visibility...
Identifier
46075, 2020-055BA
Orbit
LEO
Country
Flag of USUS
Related business
Manufacturer
SpaceX/Seattle
Mission
Operational Commercial Communications
Bus & Motor
STARLINK, Unknown motor
Mass
260 kg wet, ~248 kg dry
Launch date (UTC)
2020-08-07 (5 years ago)
Launch vehicle
FALCON 9
Launch site
Air Force Eastern Test Range (AFETR)
Object type
Payload
Rocket body
Debris
Shape & HBR
Box + 1 Pan, 10.1 m
Radar Cross Section
13.562 m², Large (>1 m²)

Expand to show TLE details & history
Last TLE update: 12 hours ago

TLE from 12 hours ago
0 STARLINK-1551
1 46075U 20055BA  25340.86812087 -.00000461  00000-0 -12064-4 0  9998
2 46075  53.0546 153.3068 0001517  94.8721 265.2441 15.06395975295312
Epoch: 2025-12-06T20:50Z
TLE epoch observation values (Epoch: 2025-12-06T20:50:05.643Z)
Latitude
-0.00002°
Longitude
124.89358°
Altitude
548.19 km
Speed
7.589 km/s
True Right ascension
10h 13m 13s
True Declination
0° 00' 00"
Sunlit
Object was in daylight at epoch
Visualization orbit readout
Latitude
Unknown
Longitude
Unknown
Altitude
Unknown
Speed
Unknown
Apparent Right ascension
Unknown
Apparent Declination
Unknown
Sunlit
N/A
Visualization observer readout
Local Sidereal Time
06:38:12
Azimuth
Unknown
Elevation
Unknown
Doppler factor
Unknown
Orbital elements
Apogee altitude
548.545 km
Perigee altitude
546.444 km
Semi-major axis
6,925.632 km
Eccentricity
0.00015
Inclination
53.0546°
RAAN
153.3068°
Arg. of periapsis
94.8721°
True anomaly
265.22678°
Mean anomaly
265.2441°
Eccentric anomaly
265.23544°
Mean motion
3.76577 °/min
Orbital period
95.6 mins
BSTAR
-0.000012064
Loading maneuver chart data...
Computing Atmospheric mass density...

Documentation

Showing up to 5 results
|